JST255 NZAA-NZWN

Flight info

Callsign JST255
Flight time 0h 49m
Altitude 32000
Route IGBAT Y506 TPAPA
Aircraft A320/M-SDE3FGHIRWY/LB1

Departure

Time 2026-05-05 09:30
Airport Auckland International Airport (NZAA)

Arrival

Time 2026-05-05 10:20
Airport Wellington International Airport (NZWN)
Time Latitude Longitude Altitude Speed Heading
2026-05-05 09:21 -37.00727 174.78870 25 ft 0 kts 70°
2026-05-05 09:26 -37.00730 174.78862 28 ft 4 kts 69°
2026-05-05 09:26 -37.00742 174.78833 28 ft 4 kts 33°
2026-05-05 09:27 -37.00759 174.78829 29 ft 2 kts 340°
2026-05-05 09:27 -37.00782 174.78833 28 ft 4 kts 35°
2026-05-05 09:27 -37.00797 174.78807 28 ft 4 kts 71°
2026-05-05 09:27 -37.00801 174.78788 25 ft 0 kts 71°
2026-05-05 09:29 -37.00800 174.78806 27 ft 16 kts 83°
2026-05-05 09:30 -37.00724 174.79341 25 ft 107 kts 71°
2026-05-05 09:30 -37.00415 174.80501 120 ft 163 kts 72°
2026-05-05 09:30 -37.00044 174.81900 845 ft 172 kts 72°
2026-05-05 09:30 -36.99884 174.83373 1836 ft 175 kts 94°
2026-05-05 09:31 -37.00450 174.84834 2518 ft 207 kts 129°
2026-05-05 09:31 -37.01765 174.85827 3112 ft 241 kts 166°
2026-05-05 09:31 -37.03522 174.85930 3603 ft 265 kts 181°
2026-05-05 09:31 -37.05400 174.85772 4343 ft 274 kts 184°
2026-05-05 09:32 -37.07317 174.85538 5254 ft 278 kts 186°
2026-05-05 09:32 -37.09227 174.85288 6117 ft 281 kts 186°
2026-05-05 09:32 -37.11189 174.85036 6971 ft 285 kts 186°
2026-05-05 09:32 -37.13177 174.84797 7757 ft 289 kts 185°
2026-05-05 09:33 -37.15195 174.84571 8539 ft 293 kts 185°
2026-05-05 09:33 -37.17237 174.84354 9325 ft 297 kts 185°
2026-05-05 09:33 -37.19312 174.84138 10118 ft 301 kts 185°
2026-05-05 09:33 -37.21451 174.83917 10500 ft 320 kts 185°
2026-05-05 09:34 -37.22960 174.83761 10632 ft 335 kts 185°
2026-05-05 09:34 -37.25330 174.83517 11042 ft 347 kts 185°
2026-05-05 09:34 -37.28578 174.83180 11925 ft 352 kts 185°
2026-05-05 09:34 -37.30197 174.83010 12382 ft 354 kts 185°
2026-05-05 09:35 -37.32663 174.82749 13074 ft 357 kts 185°
2026-05-05 09:35 -37.37656 174.82219 14439 ft 363 kts 185°
2026-05-05 09:35 -37.40184 174.81954 15027 ft 366 kts 185°
2026-05-05 09:36 -37.43608 174.81599 15778 ft 371 kts 185°
2026-05-05 09:36 -37.45320 174.81422 16150 ft 374 kts 185°
2026-05-05 09:36 -37.47929 174.81150 16698 ft 378 kts 186°
2026-05-05 09:36 -37.50561 174.80871 17253 ft 382 kts 186°
2026-05-05 09:37 -37.53225 174.80588 17816 ft 386 kts 186°
2026-05-05 09:37 -37.55912 174.80301 18373 ft 390 kts 186°
2026-05-05 09:37 -37.58630 174.80012 18923 ft 393 kts 186°
2026-05-05 09:37 -37.61370 174.79724 19441 ft 397 kts 186°
2026-05-05 09:38 -37.64129 174.79433 19996 ft 399 kts 186°
2026-05-05 09:38 -37.66906 174.79137 20546 ft 402 kts 186°
2026-05-05 09:38 -37.69702 174.78839 21095 ft 404 kts 186°
2026-05-05 09:38 -37.72516 174.78540 21627 ft 407 kts 186°
2026-05-05 09:39 -37.75308 174.78246 22133 ft 410 kts 186°
2026-05-05 09:39 -37.78159 174.77945 22645 ft 412 kts 186°
2026-05-05 09:39 -37.81025 174.77639 23157 ft 415 kts 186°
2026-05-05 09:39 -37.83913 174.77334 23665 ft 418 kts 186°
2026-05-05 09:40 -37.86821 174.77028 24157 ft 421 kts 186°
2026-05-05 09:40 -37.89748 174.76718 24571 ft 423 kts 186°
2026-05-05 09:40 -37.92687 174.76406 24999 ft 424 kts 186°
2026-05-05 09:40 -37.95633 174.76092 25407 ft 426 kts 186°
2026-05-05 09:41 -37.98592 174.75777 25829 ft 428 kts 186°
2026-05-05 09:41 -38.01564 174.75460 26236 ft 429 kts 186°
2026-05-05 09:41 -38.04545 174.75142 26634 ft 431 kts 186°
2026-05-05 09:41 -38.07536 174.74819 27025 ft 432 kts 186°
2026-05-05 09:42 -38.10537 174.74492 27410 ft 434 kts 186°
2026-05-05 09:42 -38.13551 174.74168 27787 ft 436 kts 186°
2026-05-05 09:42 -38.16578 174.73845 28163 ft 437 kts 186°
2026-05-05 09:42 -38.19617 174.73524 28539 ft 439 kts 186°
2026-05-05 09:43 -38.22669 174.73202 28918 ft 441 kts 186°
2026-05-05 09:43 -38.25731 174.72876 29289 ft 442 kts 186°
2026-05-05 09:43 -38.28807 174.72544 29654 ft 444 kts 186°
2026-05-05 09:43 -38.31896 174.72210 30015 ft 446 kts 186°
2026-05-05 09:44 -38.34956 174.71881 30371 ft 448 kts 186°
2026-05-05 09:44 -38.38062 174.71547 30687 ft 450 kts 186°
2026-05-05 09:44 -38.41179 174.71216 31078 ft 448 kts 186°
2026-05-05 09:44 -38.44280 174.70883 31486 ft 447 kts 186°
2026-05-05 09:45 -38.47382 174.70547 31892 ft 446 kts 186°
2026-05-05 09:45 -38.50466 174.70212 32299 ft 445 kts 186°
2026-05-05 09:45 -38.53554 174.69874 32460 ft 445 kts 186°
2026-05-05 09:45 -38.56615 174.69537 32496 ft 439 kts 186°
2026-05-05 09:46 -38.62673 174.68872 32493 ft 436 kts 186°
2026-05-05 09:46 -38.68721 174.68228 32492 ft 436 kts 186°
2026-05-05 09:47 -38.74765 174.67580 32494 ft 436 kts 186°
2026-05-05 09:47 -38.80804 174.66920 32494 ft 436 kts 186°
2026-05-05 09:48 -38.86813 174.66264 32496 ft 436 kts 186°
2026-05-05 09:48 -38.92853 174.65604 32502 ft 436 kts 186°
2026-05-05 09:49 -38.98903 174.64936 32503 ft 436 kts 186°
2026-05-05 09:49 -39.04948 174.64265 32502 ft 436 kts 186°
2026-05-05 09:50 -39.10995 174.63601 32506 ft 436 kts 185°
2026-05-05 09:50 -39.17038 174.62933 32503 ft 436 kts 185°
2026-05-05 09:51 -39.23082 174.62271 32503 ft 436 kts 185°
2026-05-05 09:51 -39.29123 174.61612 32503 ft 436 kts 185°
2026-05-05 09:52 -39.35166 174.60947 32502 ft 436 kts 185°
2026-05-05 09:52 -39.41212 174.60276 32498 ft 436 kts 185°
2026-05-05 09:53 -39.47253 174.59602 32498 ft 436 kts 185°
2026-05-05 09:53 -39.53291 174.58927 32498 ft 436 kts 185°
2026-05-05 09:54 -39.59327 174.58260 32497 ft 435 kts 185°
2026-05-05 09:54 -39.65365 174.57591 32353 ft 431 kts 185°
2026-05-05 09:55 -39.68322 174.57260 32105 ft 424 kts 185°
2026-05-05 09:55 -39.71245 174.56929 31852 ft 420 kts 185°
2026-05-05 09:55 -39.74149 174.56601 31605 ft 418 kts 185°
2026-05-05 09:55 -39.77043 174.56275 31360 ft 416 kts 185°
2026-05-05 09:56 -39.79925 174.55954 31109 ft 415 kts 185°
2026-05-05 09:56 -39.82795 174.55636 30875 ft 413 kts 185°
2026-05-05 09:56 -39.85654 174.55318 30636 ft 412 kts 185°
2026-05-05 09:56 -39.88504 174.54999 30373 ft 411 kts 185°
2026-05-05 09:57 -39.91343 174.54675 30085 ft 409 kts 185°
2026-05-05 09:57 -39.94142 174.54356 29809 ft 408 kts 185°
2026-05-05 09:57 -39.96962 174.54037 29533 ft 407 kts 185°
2026-05-05 09:57 -39.99782 174.53719 29255 ft 406 kts 185°
2026-05-05 09:58 -40.02588 174.53401 28987 ft 404 kts 185°
2026-05-05 09:58 -40.05389 174.53079 28719 ft 403 kts 185°
2026-05-05 09:58 -40.08180 174.52759 28449 ft 402 kts 185°
2026-05-05 09:58 -40.10965 174.52447 28179 ft 401 kts 185°
2026-05-05 09:59 -40.13739 174.52137 27921 ft 400 kts 185°
2026-05-05 09:59 -40.16508 174.51819 27660 ft 398 kts 185°
2026-05-05 09:59 -40.19262 174.51500 27403 ft 397 kts 185°
2026-05-05 09:59 -40.22001 174.51184 27121 ft 393 kts 185°
2026-05-05 10:00 -40.24720 174.50875 26720 ft 391 kts 185°
2026-05-05 10:00 -40.27427 174.50569 26311 ft 390 kts 185°
2026-05-05 10:00 -40.30127 174.50266 25900 ft 389 kts 185°
2026-05-05 10:00 -40.32819 174.49962 25490 ft 388 kts 185°
2026-05-05 10:01 -40.35502 174.49658 25063 ft 387 kts 185°
2026-05-05 10:01 -40.38187 174.49352 24638 ft 387 kts 185°
2026-05-05 10:01 -40.40868 174.49049 24201 ft 387 kts 185°
2026-05-05 10:01 -40.43546 174.48745 23715 ft 386 kts 185°
2026-05-05 10:02 -40.46216 174.48439 23254 ft 384 kts 185°
2026-05-05 10:02 -40.48867 174.48132 22805 ft 382 kts 185°
2026-05-05 10:02 -40.51505 174.47830 22355 ft 380 kts 185°
2026-05-05 10:02 -40.54131 174.47531 21896 ft 377 kts 185°
2026-05-05 10:03 -40.56745 174.47233 21435 ft 376 kts 185°
2026-05-05 10:03 -40.59308 174.46940 21002 ft 374 kts 185°
2026-05-05 10:03 -40.61893 174.46645 20548 ft 372 kts 185°
2026-05-05 10:03 -40.64472 174.46351 20093 ft 371 kts 185°
2026-05-05 10:04 -40.67040 174.46055 19647 ft 370 kts 185°
2026-05-05 10:04 -40.69600 174.45772 19199 ft 369 kts 182°
2026-05-05 10:04 -40.72152 174.45925 18762 ft 367 kts 171°
2026-05-05 10:04 -40.74677 174.46374 18288 ft 365 kts 172°
2026-05-05 10:05 -40.77188 174.46821 17858 ft 362 kts 172°
2026-05-05 10:05 -40.79677 174.47260 17432 ft 360 kts 172°
2026-05-05 10:05 -40.82153 174.47694 17001 ft 357 kts 172°
2026-05-05 10:05 -40.84610 174.48125 16579 ft 355 kts 172°
2026-05-05 10:06 -40.87053 174.48555 16153 ft 353 kts 172°
2026-05-05 10:06 -40.89487 174.48986 15733 ft 352 kts 172°
2026-05-05 10:06 -40.91910 174.49416 15319 ft 350 kts 172°
2026-05-05 10:06 -40.94320 174.49842 14893 ft 349 kts 172°
2026-05-05 10:07 -40.96721 174.50267 14483 ft 348 kts 172°
2026-05-05 10:07 -40.99121 174.50696 14051 ft 347 kts 172°
2026-05-05 10:07 -41.01503 174.51121 13624 ft 345 kts 172°
2026-05-05 10:07 -41.03879 174.51541 13215 ft 343 kts 172°
2026-05-05 10:08 -41.06235 174.51959 12808 ft 341 kts 172°
2026-05-05 10:08 -41.08578 174.52383 12405 ft 339 kts 171°
2026-05-05 10:08 -41.10904 174.52855 12007 ft 337 kts 170°
2026-05-05 10:08 -41.13226 174.53358 11592 ft 337 kts 170°
2026-05-05 10:09 -41.15531 174.53869 11192 ft 336 kts 170°
2026-05-05 10:09 -41.17802 174.54371 10798 ft 335 kts 170°
2026-05-05 10:09 -41.20091 174.54872 10491 ft 331 kts 170°
2026-05-05 10:09 -41.22328 174.55357 10364 ft 320 kts 170°
2026-05-05 10:10 -41.24510 174.55832 10065 ft 317 kts 170°
2026-05-05 10:10 -41.26666 174.56304 9857 ft 310 kts 170°
2026-05-05 10:10 -41.28772 174.56773 9575 ft 303 kts 168°
2026-05-05 10:10 -41.30764 174.57610 8994 ft 299 kts 155°
2026-05-05 10:11 -41.32669 174.58709 8393 ft 298 kts 155°
2026-05-05 10:11 -41.34564 174.59810 7803 ft 297 kts 155°
2026-05-05 10:11 -41.36450 174.60910 7246 ft 295 kts 155°
2026-05-05 10:11 -41.38326 174.62008 6677 ft 293 kts 155°
2026-05-05 10:12 -41.40071 174.63383 6094 ft 290 kts 140°
2026-05-05 10:12 -41.41496 174.65259 5527 ft 286 kts 126°
2026-05-05 10:12 -41.42719 174.67353 4947 ft 286 kts 126°
2026-05-05 10:12 -41.43939 174.69435 4342 ft 285 kts 126°
2026-05-05 10:13 -41.44897 174.71743 3669 ft 283 kts 107°
2026-05-05 10:13 -41.45633 174.74123 3202 ft 271 kts 117°
2026-05-05 10:13 -41.46749 174.75983 3288 ft 249 kts 139°
2026-05-05 10:13 -41.48040 174.77474 3144 ft 241 kts 140°
2026-05-05 10:14 -41.49303 174.78918 2869 ft 240 kts 141°
2026-05-05 10:14 -41.50536 174.80380 2713 ft 235 kts 130°
2026-05-05 10:14 -41.51155 174.82300 2666 ft 221 kts 83°
2026-05-05 10:14 -41.50721 174.84011 2650 ft 177 kts 34°
2026-05-05 10:15 -41.49759 174.84492 2579 ft 133 kts 338°
2026-05-05 10:15 -41.48981 174.83907 2563 ft 134 kts 323°
2026-05-05 10:15 -41.48207 174.83202 2536 ft 136 kts 323°
2026-05-05 10:15 -41.47426 174.82490 2505 ft 136 kts 323°
2026-05-05 10:16 -41.46645 174.81779 2437 ft 136 kts 324°
2026-05-05 10:16 -41.45863 174.81066 2326 ft 137 kts 323°
2026-05-05 10:16 -41.45081 174.80357 2198 ft 136 kts 325°
2026-05-05 10:16 -41.44190 174.79944 2093 ft 138 kts 349°
2026-05-05 10:17 -41.43231 174.79981 2019 ft 138 kts 355°
2026-05-05 10:17 -41.42282 174.80046 1785 ft 134 kts 356°
2026-05-05 10:17 -41.41356 174.80108 1583 ft 133 kts 356°
2026-05-05 10:17 -41.40439 174.80169 1409 ft 131 kts 356°
2026-05-05 10:18 -41.39520 174.80229 1218 ft 132 kts 358°
2026-05-05 10:18 -41.38613 174.80288 1035 ft 134 kts
2026-05-05 10:18 -41.37672 174.80348 852 ft 135 kts
2026-05-05 10:18 -41.36749 174.80408 674 ft 133 kts
2026-05-05 10:19 -41.35831 174.80470 487 ft 134 kts
2026-05-05 10:19 -41.34889 174.80532 342 ft 134 kts
2026-05-05 10:19 -41.33976 174.80601 182 ft 129 kts
2026-05-05 10:19 -41.33111 174.80660 31 ft 115 kts
2026-05-05 10:20 -41.32516 174.80702 31 ft 45 kts
2026-05-05 10:20 -41.32413 174.80735 34 ft 9 kts 68°
2026-05-05 10:20 -41.32417 174.80818 33 ft 10 kts 118°
2026-05-05 10:20 -41.32495 174.80830 31 ft 14 kts 185°
2026-05-05 10:21 -41.32613 174.80821 28 ft 19 kts 184°
2026-05-05 10:21 -41.32758 174.80813 26 ft 22 kts 183°
2026-05-05 10:21 -41.32832 174.80871 26 ft 12 kts 119°
2026-05-05 10:21 -41.32899 174.80884 26 ft 10 kts 157°
2026-05-05 10:22 -41.32888 174.80960 26 ft 10 kts 46°
2026-05-05 10:22 -41.32860 174.81008 26 ft 5 kts 53°
2026-05-05 10:22 -41.32859 174.81010 26 ft 0 kts 53°